Temp
61 61 61 61 61 62 63 63 63 62 62 62 62 62 62 62 61 60 58 67 66 67 67 70 70 70 70 66 67 67 63 60 60 59 66 67 68 70 70 71 72 73 73 70 69
61 61 60 61 60 61 62 63 63 62 62 62 62 62 62 61 58 56 66 66 67 67 68 68 65 67 66 64 65 65 60 62 65 65 65 66 66 68 69 69 71 71 68 67 65
60 60 60 60 60 60 60 61 62 62 62 62 61 61 61 61 56 61 67 66 67 67 68 68 68 66 62 64 63 60 60 63 65 65 65 64 65 68 67 67 74 74 74 67 66
59 60 60 60 60 61 60 60 61 62 62 62 61 61 61 59 52 64 66 67 67 67 67 65 64 61 60 59 62 56 62 61 62 62 62 62 65 65 67 73 73 74 72 68 65
60 59 59 59 59 60 60 60 60 60 61 61 61 61 59 55 58 66 64 65 66 65 63 62 61 59 57 59 58 56 60 59 62 60 62 61 63 64 66 73 74 68 65 67 68
59 59 59 58 59 59 60 59 60 59 61 61 61 60 56 49 64 66 64 63 64 64 62 63 62 63 59 58 58 59 58 60 61 61 60 58 64 60 70 69 67 65 66 68 68
59 59 59 59 58 59 59 59 59 59 59 61 61 60 53 54 64 65 64 63 64 64 60 63 64 61 61 56 60 58 54 59 60 60 59 59 57 57 70 66 68 67 68 66 67
59 58 58 58 58 58 58 58 58 59 59 60 61 57 51 63 65 61 64 61 63 65 64 65 65 62 59 60 58 54 54 51 57 55 58 59 58 65 64 65 66 69 70 66 67
58 58 58 58 58 58 58 58 58 58 59 60 55 53 49 61 57 63 64 60 61 63 64 65 64 58 58 53 51 51 50 48 53 56 55 55 58 61 62 62 67 69 70 69 68
58 57 58 58 58 58 58 58 58 58 57 59 57 47 53 53 58 59 62 62 58 58 57 58 56 53 51 51 42 48 46 48 51 54 53 54 54 63 65 62 65 69 69 69 69
57 57 57 57 58 58 57 55 50 49 49 51 51 51 53 58 60 57 60 59 59 57 50 53 48 44 50 53 51 50 48 49 53 54 52 54 55 60 65 64 64 66 68 69 68
57 57 57 57 58 58 56 48 52 48 42 53 53 53 57 58 51 54 60 54 52 47 49 47 43 53 54 51 49 49 47 48 52 52 51 54 52 60 63 64 67 68 69 67 67
56 56 56 56 56 54 52 51 56 54 44 50 52 51 54 56 52 52 56 54 50 45 46 46 49 52 49 46 45 47 46 47 47 51 52 50 54 58 61 60 60 62 62 61 62
55 55 55 56 50 52 48 57 55 54 34 41 44 50 54 56 48 59 59 57 49 45 46 47 52 46 46 46 49 43 50 50 47 45 41 49 45 56 58 58 57 60 59 61 58
54 54 55 55 51 47 53 57 52 50 20 46 46 59 55 50 51 50 59 53 47 45 47 44 43 44 41 45 50 48 48 48 47 45 44 47 43 54 53 57 63 61 60 59 58
53 54 53 51 50 51 57 54 47 30 19 37 45 41 42 49 48 49 51 57 53 47 46 47 49 49 49 46 50 49 47 45 44 44 33 44 46 51 56 58 60 59 59 56 55
53 53 51 52 45 53 51 45 27 22 39 35 36 40 42 40 44 46 43 41 38 32 34 43 43 47 48 43 45 45 45 32 31 31 35 41 39 51 58 57 59 61 59 57 55
52 53 51 50 54 54 45 33 21 32 34 42 41 40 36 43 42 41 42 38 47 46 42 33 31 43 47 48 42 41 44 35 30 30 39 37 38 50 56 54 57 58 61 57 55
52 46 46 47 50 49 35 24 26 34 41 41 40 35 34 41 44 40 39 41 45 49 37 36 39 47 48 48 49 39 36 46 31 25 34 44 48 54 54 53 54 54 55 54 54
43 41 41 51 47 42 30 27 31 41 43 43 34 39 32 35 38 37 39 47 45 50 53 43 33 38 43 49 47 44 48 36 37 31 31 40 42 49 51 54 53 51 52 55 55
40 32 42 50 46 33 25 27 33 41 44 39 37 38 41 38 37 36 40 47 50 47 50 44 41 33 41 40 42 41 40 41 44 41 36 35 45 57 59 58 55 55 53 54 53
36 26 43 47 29 29 25 30 38 39 43 40 41 41 40 42 38 35 40 45 53 50 41 47 41 32 34 40 44 52 48 46 38 33 39 39 44 52 53 52 52 55 54 54 54
31 30 41 41 22 24 29 29 35 32 38 37 35 41 45 40 35 40 41 51 50 48 44 47 34 29 29 37 39 37 43 49 50 41 36 35 44 48 49 50 51 52 52 51 52
31 25 30 32 34 28 26 26 25 37 34 40 39 41 39 37 43 40 41 46 48 49 48 48 36 37 35 39 43 32 40 44 44 35 39 40 44 54 49 47 48 48 49 50 49
31 27 31 24 25 28 30 29 26 26 35 38 35 35 34 30 34 37 44 45 44 47 47 43 34 36 40 42 45 42 38 38 37 44 37 43 40 50 54 51 47 48 46 45 40
28 28 29 30 32 28 29 27 26 29 29 29 32 36 35 30 36 34 41 42 41 43 43 42 32 37 34 34 37 36 41 37 38 40 40 40 38 56 59 50 46 48 46 45 44
33 34 33 29 29 26 26 29 29 33 35 36 34 37 34 36 43 37 46 41 36 38 38 37 33 31 29 30 32 29 36 38 40 45 45 37 48 50 46 47 50 49 48 47 48
MSLP
1020.65 1020.65 1020.42 1020.17 1019.84 1019.46 1019.30 1019.24 1019.00 1018.86 1018.89 1018.71 1018.62 1018.58 1018.37 1018.11 1017.92 1017.68 1017.09 1016.17 1015.96 1015.90 1015.94 1015.94 1015.74 1015.50 1015.37 1015.28 1015.25 1014.96 1013.88 1012.59 1012.26 1012.17 1011.59 1012.05 1011.81 1011.91 1012.04 1011.60 1011.73 1011.97 1012.37 1013.44 1014.39
1020.77 1020.61 1020.70 1020.43 1020.05 1019.70 1019.38 1019.09 1018.97 1018.87 1018.82 1018.69 1018.56 1018.49 1018.39 1018.03 1017.79 1016.97 1015.87 1015.86 1015.98 1015.95 1015.81 1015.61 1015.56 1015.50 1015.19 1015.30 1015.31 1014.58 1013.73 1012.74 1012.73 1012.66 1012.42 1012.44 1012.39 1012.08 1011.91 1011.53 1011.40 1011.87 1013.00 1013.89 1014.74
1020.76 1020.74 1020.63 1020.42 1020.16 1019.91 1019.68 1019.25 1018.78 1018.70 1018.74 1018.69 1018.56 1018.49 1018.28 1017.94 1017.51 1015.78 1015.65 1015.64 1015.78 1015.99 1015.88 1015.68 1015.68 1015.51 1015.28 1015.29 1015.20 1014.88 1013.58 1013.39 1013.12 1013.27 1013.34 1013.00 1012.67 1012.43 1011.80 1011.13 1010.74 1010.94 1011.92 1013.37 1014.24
1020.79 1020.58 1020.60 1020.36 1020.09 1020.00 1019.79 1019.43 1018.94 1018.57 1018.53 1018.46 1018.53 1018.51 1018.23 1017.89 1017.09 1015.73 1015.48 1015.32 1015.65 1015.95 1016.02 1015.76 1015.71 1015.53 1015.25 1015.06 1015.06 1015.08 1014.20 1014.02 1013.74 1013.86 1013.72 1013.27 1012.94 1012.34 1011.74 1010.69 1011.09 1011.40 1012.15 1013.00 1013.60
1020.51 1020.41 1020.22 1020.15 1020.07 1019.77 1019.74 1019.39 1019.00 1018.67 1018.38 1018.37 1018.46 1018.55 1018.20 1017.60 1015.95 1015.56 1015.69 1015.68 1015.76 1015.99 1015.88 1015.83 1015.51 1015.50 1015.16 1015.13 1015.31 1015.05 1014.40 1014.39 1014.18 1014.15 1013.97 1013.69 1012.93 1012.49 1011.22 1010.97 1011.25 1011.87 1012.47 1012.71 1013.02
1020.08 1019.98 1020.06 1020.16 1019.97 1019.75 1019.60 1019.42 1019.01 1018.64 1018.23 1018.20 1018.35 1018.32 1018.19 1017.28 1015.43 1015.39 1015.67 1015.95 1015.93 1015.78 1015.94 1015.81 1015.58 1015.50 1015.32 1015.25 1015.15 1014.90 1014.67 1014.37 1014.20 1014.04 1013.93 1013.63 1012.67 1012.70 1010.50 1010.70 1010.93 1011.40 1011.69 1012.04 1012.38
1019.77 1019.79 1019.82 1019.89 1019.72 1019.56 1019.49 1019.20 1018.86 1018.63 1018.21 1018.05 1017.98 1018.18 1017.89 1016.11 1015.58 1015.61 1015.42 1015.78 1015.86 1015.79 1015.75 1015.92 1015.70 1015.73 1015.53 1015.31 1015.22 1015.01 1014.71 1014.17 1013.74 1013.76 1013.70 1013.52 1012.42 1011.04 1010.06 1010.66 1010.56 1010.76 1011.00 1011.43 1011.80
1019.34 1019.40 1019.48 1019.42 1019.41 1019.40 1019.26 1019.03 1018.61 1018.45 1018.07 1017.99 1017.97 1018.20 1016.82 1015.52 1015.60 1015.72 1015.55 1015.43 1015.90 1015.81 1015.83 1015.73 1015.84 1015.66 1015.72 1015.79 1015.34 1015.03 1014.77 1013.98 1013.34 1013.65 1013.62 1013.60 1010.79 1010.07 1010.18 1010.13 1009.88 1010.05 1010.17 1010.80 1011.26
1018.89 1018.95 1018.99 1019.01 1019.03 1018.99 1019.01 1018.85 1018.53 1018.06 1017.81 1017.84 1018.28 1018.14 1016.57 1015.70 1015.46 1015.05 1015.22 1014.98 1015.41 1015.79 1015.68 1015.91 1015.73 1015.86 1015.80 1015.62 1015.36 1014.87 1014.01 1013.66 1013.29 1013.51 1013.58 1013.37 1011.02 1010.30 1010.31 1010.00 1009.52 1009.52 1009.68 1009.89 1010.50
1018.32 1018.50 1018.52 1018.55 1018.63 1018.73 1018.67 1018.61 1018.07 1017.86 1017.84 1017.97 1018.19 1018.41 1016.17 1015.03 1014.80 1015.00 1015.37 1015.22 1015.26 1015.38 1015.76 1015.90 1016.04 1015.75 1015.73 1015.43 1014.57 1014.17 1014.11 1013.72 1013.31 1013.46 1013.45 1012.79 1011.06 1010.21 1010.04 1009.86 1009.30 1009.20 1009.42 1009.55 1009.81
1017.75 1017.85 1017.97 1018.12 1018.22 1018.35 1018.66 1018.64 1018.33 1018.13 1017.69 1016.22 1015.77 1015.14 1014.73 1014.89 1014.81 1014.84 1015.14 1015.30 1015.16 1015.19 1015.11 1015.64 1015.61 1014.50 1014.26 1013.97 1014.35 1014.37 1014.25 1013.72 1013.48 1013.47 1013.26 1012.09 1010.81 1009.75 1009.36 1009.37 1008.92 1008.52 1008.80 1009.25 1009.61
1016.93 1017.25 1017.36 1017.50 1017.67 1017.94 1018.21 1018.31 1017.66 1018.12 1016.90 1015.70 1015.08 1015.17 1014.81 1014.76 1014.71 1014.47 1014.97 1015.04 1014.77 1014.54 1015.14 1015.65 1014.41 1014.56 1014.43 1014.70 1014.61 1014.42 1014.33 1014.13 1013.79 1013.73 1013.54 1011.95 1010.45 1009.12 1008.59 1008.06 1007.88 1007.91 1008.04 1008.83 1009.57
1016.37 1016.53 1016.81 1017.01 1017.17 1017.65 1017.72 1017.81 1017.83 1017.67 1016.69 1014.17 1013.69 1013.49 1013.76 1014.50 1013.77 1013.58 1013.96 1014.49 1014.30 1014.32 1014.40 1013.91 1013.64 1013.90 1014.43 1014.67 1014.86 1014.57 1014.07 1014.16 1014.19 1013.85 1013.37 1012.46 1009.59 1008.02 1007.49 1007.51 1007.55 1007.81 1008.23 1008.94 1009.46
1015.75 1015.95 1016.19 1016.52 1017.33 1017.03 1017.12 1017.25 1017.84 1018.03 1016.88 1013.18 1012.42 1011.17 1012.20 1013.40 1012.76 1012.70 1013.05 1013.47 1014.12 1014.08 1014.52 1014.25 1013.63 1014.03 1014.38 1014.30 1014.56 1014.49 1014.19 1013.96 1014.22 1014.47 1013.50 1013.02 1009.45 1007.57 1007.25 1007.01 1007.04 1007.22 1007.92 1008.56 1009.52
1015.16 1015.21 1015.57 1015.74 1015.92 1016.16 1016.52 1016.98 1017.87 1017.91 1016.12 1010.49 1010.55 1010.06 1009.80 1010.59 1011.34 1012.15 1012.62 1013.03 1013.11 1013.53 1014.02 1013.22 1013.50 1013.58 1013.78 1013.49 1014.20 1014.02 1014.36 1014.35 1014.33 1014.14 1013.67 1012.68 1011.72 1007.31 1007.37 1006.64 1006.01 1006.51 1007.37 1008.32 1009.32
1014.47 1014.64 1015.08 1015.43 1015.60 1015.97 1016.09 1016.80 1017.89 1017.44 1013.23 1009.91 1009.59 1009.79 1010.18 1010.13 1010.93 1012.05 1012.47 1012.63 1012.78 1013.08 1013.42 1013.27 1013.61 1013.42 1013.17 1013.84 1013.82 1014.44 1014.80 1015.05 1015.08 1014.52 1013.27 1011.73 1011.00 1006.85 1006.71 1006.07 1005.68 1006.24 1007.22 1008.22 1009.20
1013.58 1013.93 1014.44 1014.53 1014.49 1015.39 1016.02 1016.49 1016.23 1013.06 1009.77 1009.03 1008.89 1009.22 1009.29 1009.41 1010.57 1010.90 1011.22 1011.45 1011.15 1012.53 1012.39 1013.05 1013.38 1013.22 1013.00 1013.57 1014.35 1014.26 1014.48 1015.14 1015.15 1014.70 1012.14 1011.61 1010.82 1006.54 1006.11 1006.05 1006.10 1006.25 1007.12 1008.24 1009.30
1012.69 1012.90 1013.16 1013.52 1014.09 1014.50 1015.62 1014.74 1011.66 1009.74 1007.91 1007.73 1008.36 1008.71 1008.88 1009.07 1009.43 1009.69 1010.04 1010.16 1010.04 1009.74 1010.49 1011.99 1012.72 1012.47 1012.34 1011.93 1012.41 1013.39 1013.39 1013.29 1013.44 1013.36 1011.97 1011.92 1008.82 1005.79 1005.67 1006.01 1006.29 1006.63 1006.91 1008.22 1009.39
1011.52 1012.00 1012.23 1012.49 1013.28 1013.82 1014.46 1010.73 1008.59 1007.57 1007.61 1007.52 1008.10 1008.21 1008.30 1008.08 1007.99 1008.96 1008.45 1008.16 1008.06 1008.13 1009.06 1010.13 1010.92 1011.26 1011.39 1011.69 1011.88 1013.46 1013.42 1012.72 1012.95 1013.95 1012.09 1009.48 1007.32 1005.98 1005.54 1005.77 1006.15 1006.79 1007.39 1007.97 1008.85
1010.51 1011.01 1010.92 1011.42 1012.41 1012.68 1011.66 1008.82 1007.94 1007.34 1006.93 1007.22 1006.42 1006.55 1006.63 1007.18 1007.60 1007.65 1007.69 1006.65 1007.25 1007.82 1008.27 1008.97 1010.42 1011.59 1011.86 1011.85 1011.90 1011.32 1011.38 1012.43 1012.43 1011.79 1010.45 1007.97 1006.89 1005.09 1005.12 1005.02 1005.90 1006.84 1007.55 1008.12 1008.74
1009.42 1009.69 1009.14 1010.35 1011.42 1010.96 1007.96 1007.79 1007.72 1007.61 1006.87 1006.45 1005.89 1005.74 1005.61 1006.15 1006.49 1006.67 1005.57 1005.82 1006.14 1007.08 1008.33 1008.60 1009.23 1011.82 1011.71 1010.55 1010.01 1010.90 1010.61 1010.77 1010.77 1010.25 1008.92 1007.32 1005.10 1004.53 1004.38 1004.44 1005.07 1006.06 1007.16 1008.01 1008.62
1007.85 1007.61 1008.15 1009.06 1009.37 1008.03 1007.64 1007.48 1007.84 1006.90 1006.87 1006.35 1005.89 1005.36 1005.19 1005.29 1005.43 1005.70 1004.60 1004.51 1005.21 1006.33 1007.23 1007.45 1008.84 1010.24 1010.57 1010.58 1010.24 1009.14 1008.19 1008.29 1008.46 1008.93 1008.62 1007.53 1004.47 1004.35 1004.79 1005.24 1005.73 1006.03 1006.85 1007.84 1008.58
1006.53 1006.53 1007.45 1007.85 1006.87 1007.11 1007.67 1007.40 1006.79 1006.91 1005.80 1005.82 1005.78 1005.45 1005.36 1005.01 1004.97 1004.77 1004.54 1004.48 1005.05 1005.57 1005.63 1006.81 1007.80 1009.04 1010.45 1010.87 1010.20 1008.96 1008.42 1007.37 1007.30 1008.19 1007.62 1007.32 1003.38 1004.70 1005.24 1005.69 1005.95 1006.35 1006.93 1007.88 1008.58
1005.24 1005.79 1006.16 1006.53 1006.09 1006.11 1006.50 1006.43 1006.82 1006.29 1006.14 1005.24 1005.01 1005.70 1005.33 1004.80 1004.46 1003.93 1003.99 1004.41 1004.82 1005.07 1005.71 1006.25 1006.25 1005.98 1005.13 1004.45 1006.39 1008.14 1007.32 1007.45 1007.36 1007.94 1006.18 1006.17 1003.58 1004.50 1005.06 1005.50 1005.87 1006.77 1007.43 1008.10 1008.76
1003.51 1003.94 1004.05 1004.40 1005.09 1005.73 1005.94 1005.61 1005.53 1005.51 1004.79 1005.18 1004.61 1004.28 1004.75 1004.69 1004.24 1003.61 1003.80 1004.38 1005.02 1004.85 1005.68 1006.23 1005.89 1005.90 1005.14 1005.44 1005.48 1005.61 1006.33 1006.97 1006.96 1005.00 1006.37 1003.33 1003.96 1003.86 1004.55 1005.12 1005.87 1006.79 1007.77 1008.47 1009.02
1003.33 1003.79 1003.65 1003.31 1003.43 1004.17 1003.90 1003.76 1003.79 1003.72 1004.29 1003.73 1003.82 1003.53 1004.28 1003.88 1003.48 1003.62 1003.94 1003.96 1004.01 1005.33 1004.97 1005.72 1005.64 1005.69 1005.53 1005.80 1005.81 1005.13 1005.01 1005.46 1005.16 1004.77 1005.06 1003.97 1003.34 1003.04 1003.85 1005.05 1005.86 1006.29 1007.21 1007.87 1008.59
1002.80 1002.81 1002.68 1002.34 1002.71 1002.60 1001.96 1002.01 1002.20 1002.77 1002.19 1002.89 1002.85 1003.07 1002.78 1002.86 1003.46 1004.16 1004.12 1004.67 1005.57 1005.37 1005.13 1005.73 1005.72 1005.62 1004.89 1005.63 1005.75 1004.81 1003.53 1003.53 1003.53 1003.91 1003.11 1003.97 999.86 1002.88 1003.59 1004.15 1004.39 1005.24 1005.82 1006.41 1007.56
Wind_Speed
13 15 16 17 17 10 8 7 5 4 5 5 6 6 8 7 6 1 5 2 1 4 4 4 2 4 2 3 2 2 6 7 5 5 0 1 5 3 1 4 3 4 1 4 13
11 12 13 15 16 17 16 8 7 6 6 6 6 7 8 7 4 7 5 2 5 5 6 8 7 6 4 4 4 6 5 7 1 2 2 1 3 1 4 5 6 6 4 8 13
11 10 11 11 13 15 17 15 10 7 7 6 6 8 7 4 5 2 0 8 5 6 1 3 5 3 4 4 6 4 7 4 3 6 4 3 4 2 4 8 10 9 9 12 14
11 10 12 11 11 13 15 18 17 9 6 6 6 7 8 2 4 2 5 8 6 6 5 6 7 6 5 7 5 5 8 5 1 2 3 4 3 5 9 9 2 3 4 11 14
12 9 10 12 12 12 14 14 15 18 7 5 4 6 4 3 7 1 5 8 7 6 6 5 9 5 6 4 5 7 4 4 6 6 7 5 12 11 15 15 11 5 4 9 12
12 12 9 11 11 10 13 15 15 18 9 5 3 2 2 7 2 4 7 4 4 5 5 6 5 3 3 3 8 1 5 8 6 9 7 7 8 3 8 2 7 11 12 14 14
12 11 11 11 11 10 11 14 14 18 15 5 2 1 4 13 1 3 7 3 4 4 5 3 3 3 3 3 2 1 6 7 10 6 6 6 10 16 16 6 9 9 8 9 13
12 10 10 12 9 10 10 12 14 15 15 5 4 1 8 2 4 5 5 5 3 3 1 4 3 3 1 1 1 3 2 5 3 6 2 7 13 2 1 7 12 12 8 7 13
14 14 11 11 10 9 9 12 15 14 5 7 2 2 9 3 4 8 7 7 8 3 3 3 3 2 4 2 3 3 5 7 4 6 3 9 8 2 1 3 6 7 8 9 8
15 13 14 11 10 11 8 12 13 3 5 3 2 2 6 5 4 4 2 8 4 9 6 4 2 5 4 8 9 8 6 4 6 4 5 7 21 17 10 9 10 9 9 8 10
16 16 15 14 12 11 5 4 4 5 6 11 8 5 1 2 4 5 4 6 4 6 9 7 8 15 20 20 4 2 4 6 2 0 4 13 18 18 16 13 15 14 13 11 11
17 17 17 17 16 14 5 5 5 3 8 20 19 14 6 2 4 8 8 11 8 9 9 6 16 14 9 10 12 8 5 5 5 1 4 9 17 19 17 15 15 16 14 13 10
19 18 15 14 13 9 11 11 4 8 8 11 21 23 14 9 8 16 17 7 9 12 17 13 5 12 12 9 12 14 16 10 5 5 4 9 17 14 5 9 8 11 8 7 11
19 18 16 13 6 9 12 13 3 2 6 10 11 13 18 11 13 10 18 9 6 15 12 11 7 8 12 16 14 13 14 14 10 5 6 2 10 9 4 9 9 10 10 9 9
19 19 19 20 4 9 7 9 7 2 8 7 15 5 17 25 16 14 17 3 13 11 9 7 12 14 9 10 18 5 5 10 9 9 5 9 8 6 3 9 13 13 12 9 9
19 21 19 11 8 6 10 13 6 8 18 5 11 15 15 24 10 12 17 5 3 9 4 4 1 6 5 4 17 13 8 6 3 3 7 10 11 8 9 9 5 4 11 10 11
21 19 16 11 12 11 8 8 10 16 2 10 10 12 21 15 20 16 21 17 13 10 13 9 9 4 5 9 4 7 10 2 2 3 7 4 8 12 7 9 6 6 12 11 11
25 23 17 12 11 12 9 10 19 23 28 8 9 16 18 18 19 16 21 20 26 15 12 13 9 15 10 8 12 11 8 6 8 7 2 3 12 7 7 4 8 5 10 12 12
23 13 13 10 12 12 12 20 20 19 24 14 13 17 14 20 12 16 20 26 24 26 14 13 12 12 14 5 10 7 8 2 6 2 2 6 7 11 11 13 9 8 11 14 14
12 12 15 14 16 12 14 31 15 20 8 26 23 18 20 17 20 21 21 21 21 25 16 8 4 3 7 6 2 8 11 5 2 7 9 7 7 8 3 13 8 10 10 13 13
13 12 10 17 14 13 18 21 19 18 22 15 31 24 20 21 21 17 19 13 32 23 19 7 3 3 8 14 17 8 8 4 3 6 6 8 11 9 14 8 14 15 13 13 14
12 15 10 15 18 9 19 15 23 24 25 20 13 23 25 25 23 18 30 22 22 23 29 17 3 8 11 2 5 18 17 14 10 11 6 5 13 3 5 3 5 12 11 11 11
11 8 5 16 20 19 18 17 21 14 28 27 21 17 24 25 25 26 18 19 12 23 20 20 8 8 4 3 5 11 11 20 14 3 12 8 17 2 4 6 6 10 11 11 12
5 5 7 9 13 17 22 27 23 26 23 27 25 24 22 26 24 16 26 13 15 23 17 14 5 20 19 22 13 15 23 19 17 7 21 16 27 12 6 8 5 7 8 10 10
5 7 5 9 14 19 25 20 28 25 29 24 25 27 23 26 26 27 21 23 11 19 21 9 16 15 23 5 17 18 20 20 19 29 16 29 27 19 9 8 6 8 7 8 6
3 4 4 6 16 24 29 24 31 32 19 24 32 27 28 21 25 24 25 22 19 13 23 13 5 16 17 8 7 10 22 24 27 23 20 11 18 16 13 5 9 13 12 12 13
4 4 3 7 13 15 23 31 24 29 25 33 18 25 30 27 24 7 12 4 1 8 16 15 8 8 20 10 5 6 21 28 23 21 31 17 39 7 9 12 14 17 18 18 14
Wind_Direction
359 351 354 2 2 346 300 295 295 303 303 311 317 318 317 324 319 208 248 275 147 191 139 145 158 130 135 114 120 187 230 240 246 207 19 141 228 158 16 246 199 182 236 85 133
354 353 341 342 354 353 359 303 297 293 294 304 308 312 315 334 287 252 246 217 256 167 165 177 168 160 147 141 159 217 227 225 250 263 292 282 269 236 245 207 219 198 154 138 150
329 337 344 341 341 347 344 345 315 286 287 295 304 308 314 326 282 221 186 213 207 183 184 150 153 179 178 166 181 184 239 217 237 237 274 281 255 248 246 241 238 227 185 170 174
338 319 326 337 345 336 338 341 342 277 271 289 304 308 319 278 292 27 324 185 167 159 146 138 154 179 193 200 173 227 242 240 277 196 216 238 302 256 234 250 8 248 136 174 193
308 321 315 317 325 336 332 326 326 338 261 257 283 310 312 246 246 99 85 109 121 153 176 167 169 158 204 200 162 234 250 222 250 249 253 274 255 263 259 250 245 206 196 206 208
307 310 310 302 298 319 326 330 321 330 279 240 244 327 278 251 84 148 133 135 150 154 165 171 201 197 161 193 210 273 263 269 269 252 245 243 260 205 239 219 223 218 234 230 220
291 298 308 305 279 300 316 325 323 320 314 230 169 198 236 248 33 177 153 168 171 172 160 200 163 205 164 178 225 253 289 278 237 236 242 211 252 234 248 221 228 217 236 219 214
278 273 281 295 280 282 307 318 319 309 302 196 152 150 254 154 190 187 184 129 157 161 240 167 176 136 270 18 153 232 218 258 107 175 212 212 260 267 102 225 243 238 220 202 206
264 270 260 271 284 281 291 308 307 295 193 153 142 205 259 123 200 202 200 162 143 138 116 125 149 133 141 201 252 215 254 217 290 199 154 219 279 53 257 221 239 221 210 204 199
260 257 270 255 262 267 290 307 294 133 122 99 294 249 236 226 161 146 206 160 152 138 113 153 138 180 154 183 222 224 231 238 247 160 211 230 260 271 256 271 267 244 239 231 209
261 254 252 260 248 248 271 312 213 216 202 215 191 237 118 82 143 165 164 151 125 162 169 175 205 204 197 202 178 198 254 268 265 96 245 244 263 267 271 261 258 252 245 235 217
253 255 249 248 240 234 180 225 281 69 261 236 249 242 241 251 186 175 165 180 176 180 142 159 228 223 222 198 210 214 245 262 272 187 249 291 280 277 261 253 242 243 242 237 211
263 252 244 242 241 240 220 212 79 4 267 233 219 228 213 193 229 187 176 171 196 177 191 200 145 201 185 187 206 225 223 223 249 324 226 298 275 254 242 245 240 238 245 238 230
262 256 236 234 247 222 224 228 121 112 275 235 204 225 199 189 239 172 182 167 182 200 179 233 185 149 189 214 195 228 214 221 238 265 260 357 292 277 263 259 233 221 215 218 206
265 254 235 221 185 202 185 188 144 159 253 194 183 188 175 184 137 186 178 169 172 168 179 212 176 176 180 205 190 236 165 207 211 217 271 217 269 264 295 267 248 216 206 199 190
259 253 237 230 231 190 191 157 115 187 233 221 157 176 164 196 167 137 182 197 134 167 236 258 348 201 199 120 180 141 110 87 84 183 243 202 218 243 237 224 257 199 196 185 175
247 250 242 209 212 181 170 178 204 213 148 198 183 173 180 176 179 175 183 190 171 157 201 188 204 203 166 121 140 188 166 131 201 206 255 148 204 255 248 245 249 244 198 181 171
245 238 224 240 210 183 197 217 218 205 209 101 170 166 191 174 199 190 177 198 211 201 156 189 212 186 180 187 176 180 194 173 207 198 250 139 233 234 254 279 262 262 193 169 175
236 241 233 215 223 192 209 218 209 219 207 220 164 176 198 201 193 178 199 204 197 197 190 192 228 195 178 149 151 181 209 129 102 52 271 208 258 264 247 249 228 214 183 178 177
234 232 227 211 187 210 220 239 216 229 227 215 209 194 188 195 198 191 189 213 207 207 213 196 166 222 160 145 148 180 138 145 220 214 236 226 263 253 240 242 209 209 208 188 182
225 229 207 206 190 215 224 219 225 219 235 217 219 218 216 194 203 200 205 216 199 195 201 162 199 128 165 213 176 160 174 180 219 222 243 259 249 197 231 216 208 201 201 194 187
225 229 191 177 214 218 231 219 235 225 228 239 246 223 221 211 202 210 212 200 198 179 196 202 187 168 200 15 295 225 206 178 178 204 231 285 257 157 245 259 237 205 187 186 188
216 192 199 179 217 221 224 257 215 218 212 222 229 234 225 228 224 209 210 203 189 186 191 185 203 160 136 279 204 224 212 209 227 47 211 207 254 131 252 249 222 217 187 180 182
195 208 174 200 224 224 215 230 243 231 239 223 217 225 234 225 232 227 220 194 194 195 202 185 212 213 204 210 151 197 203 205 197 186 226 230 255 232 243 242 202 208 182 180 181
187 213 200 181 212 221 220 227 220 235 212 213 227 210 218 227 222 228 228 212 201 192 195 199 220 219 230 239 188 198 193 191 199 216 202 233 236 226 244 230 200 180 174 181 188
197 211 153 226 206 208 218 223 230 227 236 227 222 209 208 230 219 214 222 222 205 205 193 194 223 218 233 227 213 203 195 190 201 215 229 235 263 241 225 149 181 190 185 197 201
187 213 209 212 224 218 215 220 219 220 223 222 219 223 215 219 224 231 240 269 88 217 200 194 177 181 219 170 151 236 199 194 206 212 216 209 237 152 201 219 197 191 195 198 193